Dewpoint
53 49 53 49 45 46 39 38 25 35 35 26 25 29 26 33 36 37 36 37 37 41 42 46 50 49 46 45 46 49 50 45 46 41 46 58 64 62 63 64 63 61 63 64 65 67 69 70 70 70 70 70 70 71 70 70 70 69 68 67 67 66 66 66 66 67 67 67 66 66 66 66 67 66 66 65 64 65 65 66 66 67 67 66 65 69 68 68 68 67 67 67 67 67 67 68 67
49 50 50 51 45 41 36 34 29 24 27 25 25 24 30 32 36 36 36 37 42 46 47 47 50 52 53 52 51 50 50 55 53 55 60 62 63 62 64 64 62 61 63 64 64 66 68 70 70 70 70 70 70 70 69 70 69 68 68 68 66 64 63 62 65 66 63 62 65 66 66 66 66 65 66 66 66 65 65 64 65 66 66 67 67 67 67 66 67 67 66 66 66 67 67 67 67
49 49 44 43 40 36 34 34 25 24 23 18 21 23 29 31 34 37 37 40 49 50 50 51 51 51 51 50 47 48 49 57 56 58 59 63 60 60 64 64 62 61 62 63 64 66 68 69 70 70 70 70 71 70 70 69 68 68 69 68 66 63 64 67 66 65 65 66 65 66 66 66 65 65 65 65 64 64 65 64 64 65 66 66 66 65 66 66 66 67 66 66 67 66 67 66 66
49 46 43 39 35 36 27 26 27 23 22 20 21 25 27 29 33 37 41 50 50 49 49 49 47 54 51 46 49 52 54 55 58 59 57 59 58 62 64 63 64 62 64 63 63 66 68 69 70 71 70 70 71 70 70 69 68 67 67 67 66 63 62 64 63 64 65 66 65 65 66 66 65 65 64 65 64 65 65 64 66 66 66 66 66 67 67 68 67 67 67 67 66 66 66 65 65
46 44 44 38 34 31 33 33 28 24 20 22 19 24 24 26 35 38 47 51 48 43 48 49 50 54 55 53 53 49 54 58 59 60 59 60 63 63 65 64 62 61 62 62 62 64 68 69 70 70 70 70 70 70 70 69 68 67 67 66 65 64 65 63 62 63 66 66 66 65 65 66 66 65 65 65 64 63 61 62 63 64 64 64 65 65 65 65 65 66 66 66 67 66 66 65 65
43 42 46 40 31 36 30 28 24 20 24 23 21 22 22 22 35 42 47 49 49 48 43 49 48 51 51 56 56 54 58 53 59 60 59 60 63 64 64 64 61 60 62 63 63 63 67 68 70 70 70 70 70 69 69 68 68 67 66 65 64 65 65 66 66 65 66 65 62 61 65 63 62 64 64 64 63 64 64 64 63 63 64 64 64 65 66 66 66 66 66 66 66 66 66 65 65
43 36 40 36 35 38 31 25 18 21 26 25 23 22 23 24 35 45 47 47 47 43 40 48 49 51 48 55 57 58 60 60 58 59 61 63 64 64 64 62 62 61 62 62 64 64 69 69 70 70 71 70 69 69 68 68 67 66 66 65 63 64 66 66 65 64 64 65 63 62 63 64 65 65 65 65 65 65 65 64 64 65 65 65 66 66 66 66 65 65 65 66 66 66 66 66 65
46 37 37 30 32 31 28 27 23 22 25 27 26 24 25 28 37 43 45 43 41 40 44 52 51 48 52 56 53 58 59 59 61 63 64 63 64 64 64 61 61 61 62 64 65 65 70 68 70 70 70 69 69 68 68 68 67 66 66 64 63 63 66 64 64 65 68 68 65 64 62 64 65 65 64 66 65 64 64 63 63 64 64 65 65 65 65 65 65 65 65 65 65 65 65 65 65
41 34 43 35 29 33 28 26 24 26 26 28 26 28 38 31 38 43 44 41 38 40 46 50 48 43 50 52 53 57 59 62 63 63 64 63 63 64 62 61 60 62 62 63 65 67 69 68 69 70 69 69 68 68 67 67 67 66 65 64 63 63 63 63 63 67 67 66 66 65 64 65 66 64 64 64 64 64 64 63 63 63 64 64 64 65 65 65 65 65 65 65 65 65 65 65 66
38 36 29 32 32 29 28 27 23 24 25 24 24 25 29 33 40 46 43 39 37 41 49 49 48 40 53 50 54 57 59 63 63 62 63 63 63 63 62 62 62 62 62 63 64 66 68 70 68 69 69 69 68 68 66 66 66 66 65 64 64 63 63 63 66 68 68 67 67 67 65 64 63 63 64 64 64 64 64 64 64 64 64 64 66 66 65 65 65 65 65 65 64 65 65 65 65
29 32 39 32 30 28 31 28 27 24 23 25 26 25 29 34 43 43 42 38 42 43 50 50 44 46 52 53 55 59 61 64 62 61 63 63 63 63 61 61 62 63 62 65 65 66 67 68 68 68 68 68 68 68 67 66 66 66 65 64 63 63 63 62 68 68 67 67 67 68 67 65 63 61 60 61 61 63 64 64 63 63 64 64 65 65 65 65 65 65 65 65 64 64 64 64 65
29 31 36 31 29 29 28 26 25 23 23 27 29 32 33 37 42 39 38 35 39 44 47 49 40 53 50 52 54 58 61 63 62 62 63 63 62 63 61 61 63 62 64 65 66 65 66 67 68 69 66 65 66 67 67 67 67 67 67 65 64 64 62 61 65 66 67 68 67 67 67 65 64 63 63 64 64 64 63 63 64 64 64 64 64 65 65 65 65 65 65 64 64 64 64 64 64
36 37 29 29 28 27 29 25 27 27 24 21 29 34 36 37 39 37 37 36 40 42 43 47 53 53 44 50 56 58 61 62 62 63 63 62 63 62 62 60 62 63 64 65 64 65 66 64 66 67 66 64 64 64 65 67 68 68 68 69 68 68 68 66 68 68 68 68 68 68 66 66 65 64 63 63 63 63 63 64 63 63 63 63 64 65 65 65 65 65 65 65 65 64 64 64 64
45 41 31 31 30 27 25 27 26 24 18 25 30 34 36 37 38 34 35 34 40 36 44 48 51 49 49 53 53 56 58 63 63 63 63 63 63 63 62 61 64 64 65 64 64 65 65 65 64 66 65 64 64 64 63 66 67 68 68 68 68 69 69 69 68 68 68 68 68 68 68 68 67 66 65 66 66 66 65 64 64 64 64 64 65 65 65 65 65 65 65 65 65 65 64 64 64
39 40 34 33 29 28 28 27 25 23 21 26 29 35 35 34 31 32 34 31 38 42 49 52 54 46 32 43 48 55 58 62 65 64 63 63 63 62 62 60 63 65 64 63 63 65 65 65 64 66 65 64 64 64 63 67 65 66 67 67 67 68 68 68 67 67 67 67 67 66 65 65 64 65 66 66 66 65 65 65 65 64 64 64 64 64 65 65 65 65 64 65 64 64 64 64 64
43 40 34 30 27 29 32 26 26 26 21 25 27 29 35 28 31 33 34 34 39 41 48 46 51 41 45 39 49 57 60 63 65 64 63 64 63 61 60 59 58 62 64 63 63 65 65 65 66 65 65 64 64 63 64 64 64 64 65 65 66 66 66 66 65 64 64 63 63 64 63 65 63 64 62 64 63 64 64 63 65 64 63 63 63 64 64 64 64 65 64 64 64 63 63 62 62
46 47 28 28 27 27 32 27 26 23 23 23 25 31 34 32 29 28 37 39 36 38 46 51 50 52 48 48 53 57 61 64 65 64 63 63 63 59 57 57 58 59 61 62 63 63 65 65 65 65 64 64 64 64 64 65 68 63 63 63 63 64 64 64 63 60 60 59 60 59 62 64 64 64 65 65 62 64 60 62 64 65 65 65 64 64 64 64 64 64 64 63 63 61 60 59 59
42 38 31 28 29 27 28 26 25 25 23 22 22 26 33 32 29 32 40 38 44 45 46 51 52 52 53 55 58 58 62 64 65 63 62 62 62 58 55 55 56 56 59 59 62 63 64 65 65 64 65 65 64 64 64 64 66 63 64 65 65 64 62 61 63 64 64 64 59 64 62 62 62 62 63 64 63 64 63 59 62 64 64 64 64 64 64 64 63 63 62 63 62 60 59 63 62
34 35 32 28 27 28 28 25 26 24 24 22 22 24 30 32 29 33 31 31 37 39 43 48 49 51 54 56 58 59 62 63 64 62 62 61 61 58 55 56 56 56 57 58 59 61 63 63 64 64 65 64 64 63 64 65 64 63 64 64 65 62 65 65 64 64 63 63 63 61 59 61 62 62 63 64 63 57 61 59 61 61 61 61 63 63 63 63 62 62 61 61 61 59 64 61 60
33 34 31 29 31 27 27 25 23 26 23 21 21 24 26 28 28 34 32 30 38 33 34 44 46 47 52 56 59 59 61 62 63 62 62 60 61 60 57 55 55 56 57 58 58 60 62 62 64 64 64 64 63 62 62 64 64 64 63 64 63 62 63 63 64 64 64 64 63 61 60 63 63 62 60 60 62 63 62 57 57 58 59 59 60 62 61 61 60 60 59 59 61 60 61 60 59
35 33 34 32 29 26 23 25 23 24 24 22 22 23 23 24 27 31 31 30 31 32 31 33 38 44 53 57 58 60 60 61 62 62 62 61 61 60 59 55 55 56 57 58 59 59 59 60 63 63 64 64 63 62 62 61 63 63 63 63 64 62 62 61 61 63 64 65 64 61 63 63 63 62 62 62 62 62 61 61 62 61 61 62 59 61 61 63 61 61 61 61 60 61 59 58 58
36 33 31 27 28 28 22 22 22 22 22 22 23 21 23 25 26 29 31 26 24 27 32 35 33 41 54 56 58 60 60 61 61 61 62 62 60 60 60 59 55 56 57 57 58 59 60 59 60 62 63 63 63 62 61 61 63 62 63 63 63 62 63 62 61 61 63 63 63 63 62 63 63 62 62 62 62 61 61 60 61 61 61 61 61 61 60 60 60 59 60 60 58 58 58 58 58
35 34 30 28 27 27 23 22 22 22 22 21 21 22 23 23 22 25 28 27 25 26 27 31 38 43 53 57 58 59 60 60 60 60 61 62 61 60 60 59 57 55 56 57 58 58 59 59 60 60 62 62 63 62 61 61 61 61 62 63 62 62 62 63 62 61 61 63 63 64 62 61 61 60 61 62 62 61 61 61 61 61 61 61 60 60 60 60 59 59 58 58 58 58 59 59 59
37 36 29 27 27 28 23 23 23 21 21 21 22 23 21 22 20 28 26 27 27 34 45 39 34 48 56 57 58 59 59 60 59 59 60 61 61 61 61 60 59 56 56 56 58 58 59 59 59 60 60 62 62 62 61 61 61 61 62 62 63 61 61 62 62 61 62 61 62 60 60 60 60 60 61 61 62 61 61 62 61 61 61 61 61 60 60 59 59 60 60 61 60 60 59 60 59
36 36 31 26 28 27 26 22 22 22 21 22 22 21 21 21 22 23 22 24 25 31 46 41 44 51 55 56 58 59 59 60 59 59 60 61 61 62 62 61 60 59 57 56 57 57 58 59 59 59 59 60 60 61 60 60 61 61 62 62 62 62 62 62 62 62 61 60 61 62 60 60 60 61 62 62 62 62 62 62 60 60 61 61 61 61 61 60 60 59 60 59 59 58 57 58 58
36 35 31 30 30 32 28 24 21 21 21 21 22 25 22 22 23 21 22 22 24 45 48 49 51 52 54 55 57 58 59 59 59 59 59 61 61 61 61 61 61 59 58 56 57 58 58 58 58 58 59 59 60 60 61 60 60 61 61 62 62 63 62 62 64 61 62 61 61 61 61 61 61 60 62 62 62 62 62 62 61 60 60 60 61 61 60 60 60 60 60 60 59 58 57 58 58
34 35 32 32 34 35 33 33 30 21 22 21 23 28 21 20 21 28 21 28 36 42 48 53 50 50 53 55 57 57 58 59 59 59 59 60 60 60 60 61 61 60 60 58 57 58 58 58 59 59 59 60 60 60 60 60 60 61 61 62 62 62 63 63 62 61 61 61 61 63 62 62 61 62 61 62 62 62 62 61 61 61 60 60 60 60 61 61 60 59 60 59 59 58 58 58 58
33 34 33 34 35 36 37 37 37 25 33 21 21 22 20 20 22 22 24 38 44 36 46 50 50 48 52 55 57 58 58 59 59 60 59 59 59 59 60 60 61 61 60 60 59 59 58 58 58 58 58 59 59 59 60 60 60 60 61 61 61 62 62 62 62 62 61 61 63 63 63 62 62 62 63 63 63 62 61 60 60 60 60 60 60 60 60 61 61 60 61 61 61 59 58 58 59
35 36 38 38 38 38 37 37 32 33 36 21 21 28 27 20 19 22 21 39 43 39 45 50 51 50 52 54 56 57 57 58 59 58 58 59 59 59 59 60 60 60 61 61 61 60 58 58 58 58 58 59 59 59 59 60 60 60 61 61 61 62 61 62 62 62 62 62 63 63 63 63 62 62 62 63 63 62 61 61 60 60 60 60 60 62 62 62 60 60 60 60 59 59 58 58 59
37 38 38 38 38 38 35 37 30 35 39 21 30 37 37 28 23 25 24 36 43 40 40 45 50 52 52 54 55 56 57 58 58 58 58 59 60 60 59 60 60 60 60 61 62 61 60 60 59 59 59 59 59 59 59 60 59 60 60 60 61 61 60 61 62 62 62 62 62 63 64 63 62 61 62 63 63 62 62 62 61 60 60 61 61 61 59 57 56 57 58 57 56 57 56 56 54
38 37 39 40 39 39 25 28 24 35 28 20 33 37 37 36 22 22 29 32 32 27 30 38 47 50 52 54 55 55 56 57 57 57 59 60 59 59 59 60 60 60 60 61 62 62 61 61 61 59 60 60 59 59 60 60 60 60 60 60 60 61 61 61 61 62 62 62 61 62 63 63 62 62 63 62 62 62 61 59 58 58 59 61 60 59 59 58 58 58 56 56 56 55 55 57 56
38 39 39 38 39 40 35 33 23 33 19 20 27 33 33 31 29 19 27 37 36 27 23 33 43 48 51 53 54 54 55 56 57 57 59 59 59 59 59 59 59 59 60 61 62 62 62 62 62 61 60 60 61 60 60 60 60 60 60 59 60 62 60 60 60 61 61 60 60 61 63 63 63 63 63 63 61 61 60 59 58 59 60 59 59 59 59 58 57 59 59 59 56 57 56 56 56
36 39 40 38 38 39 38 36 27 26 24 20 22 30 21 19 18 15 27 33 36 31 27 28 39 47 50 51 53 54 55 56 57 58 58 58 59 59 59 59 59 60 60 61 61 62 62 63 62 61 61 61 61 60 61 61 60 60 60 60 61 62 61 61 61 61 61 60 60 60 62 62 63 63 63 63 62 62 61 61 60 60 60 59 59 58 57 58 58 59 57 58 58 56 57 58 58
37 39 38 38 36 37 36 33 31 27 25 26 19 21 26 23 20 20 23 30 35 30 28 28 32 41 47 50 52 53 54 55 55 57 57 58 58 59 59 58 59 59 60 60 61 61 62 63 63 63 62 61 61 61 61 62 61 61 61 61 62 62 63 62 62 62 61 60 61 61 62 62 61 63 63 63 62 62 62 62 62 61 61 60 59 59 57 58 59 59 57 58 58 57 56 57 57
36 37 38 35 33 33 34 34 26 28 22 30 23 20 22 21 18 18 19 29 25 24 23 25 28 33 41 47 50 52 53 54 55 56 57 58 59 59 59 60 60 60 59 59 61 61 62 62 63 63 63 63 62 62 62 62 61 61 61 62 63 62 63 63 63 62 62 62 62 63 63 62 61 63 63 63 62 62 61 61 62 62 61 60 60 59 59 60 60 60 60 58 59 59 59 59 59
37 38 38 38 36 35 33 33 26 29 29 29 29 29 28 25 22 20 20 24 25 23 25 29 29 31 34 41 46 49 52 53 54 56 58 58 59 59 59 59 59 60 60 60 60 61 61 62 62 62 63 63 63 63 63 62 61 60 61 62 62 62 63 62 63 63 63 62 63 63 63 63 62 62 63 63 63 62 62 62 62 62 61 60 60 60 59 59 60 60 60 60 60 60 59 59 59
38 39 39 37 37 36 30 30 23 27 28 30 31 31 30 30 29 25 22 23 25 24 25 26 29 31 33 36 41 46 49 50 55 57 58 58 59 59 59 59 59 60 60 60 61 61 61 61 62 62 62 63 63 64 64 63 62 62 62 62 62 62 62 63 63 63 63 63 63 64 64 63 63 63 63 63 63 61 62 62 62 62 62 61 60 60 60 61 61 60 59 59 60 59 59 60 60
39 38 38 37 38 36 34 33 22 24 28 31 29 29 30 29 29 26 26 23 21 20 21 22 23 26 30 35 38 43 45 51 55 54 55 57 58 59 59 59 58 59 59 60 60 61 61 62 62 62 62 63 63 63 64 63 63 63 63 62 63 63 63 63 63 63 63 64 64 64 64 63 64 64 63 63 63 63 62 62 62 62 62 61 61 61 62 60 61 61 60 60 60 60 59 59 59
39 38 38 38 36 37 33 30 27 25 26 29 30 27 28 29 30 26 25 26 25 23 22 20 20 23 26 30 34 37 43 48 49 50 53 55 57 58 58 58 58 58 59 59 60 60 61 61 62 62 62 63 63 63 64 63 64 64 63 63 63 63 64 64 64 63 64 64 64 64 63 63 64 63 64 63 63 63 62 62 62 61 62 61 61 61 61 61 61 61 61 60 60 59 59 59 58
40 39 38 38 38 37 35 32 24 23 29 30 27 25 27 29 30 28 26 26 27 26 24 24 23 22 23 25 31 34 37 43 44 46 49 52 55 57 58 58 58 59 58 59 59 60 60 59 60 61 61 62 62 63 62 64 64 64 64 64 64 63 63 63 64 64 64 64 64 64 63 63 63 63 63 64 63 62 62 61 61 61 61 62 62 61 61 61 60 60 60 60 60 59 58 58 58
42 40 40 39 36 37 36 25 27 27 29 25 25 28 29 30 30 31 30 30 29 30 27 25 26 29 27 34 37 35 31 37 42 42 45 49 52 54 56 57 59 59 59 59 59 59 59 60 60 61 61 61 61 61 63 64 64 64 64 64 64 64 63 63 63 63 63 63 64 64 63 63 64 63 63 63 62 61 62 62 62 61 61 62 61 60 60 61 61 60 60 60 59 58 58 57 57
41 42 41 40 37 36 31 29 29 31 33 25 28 31 33 34 32 32 32 31 30 29 26 26 23 25 28 25 28 32 36 36 38 38 42 46 48 52 54 57 58 58 58 59 59 59 59 60 60 60 61 61 61 61 62 63 63 63 63 62 61 62 61 61 61 61 62 62 63 64 64 64 64 64 63 63 63 62 63 63 63 62 62 62 62 61 62 62 61 61 61 60 59 60 58 57 56
40 39 39 38 38 37 32 31 34 33 33 30 26 31 31 32 31 29 27 29 31 32 27 25 22 21 23 26 26 28 31 31 35 36 39 41 44 48 51 54 56 57 58 59 60 60 60 60 60 60 60 61 62 61 62 62 62 63 63 62 62 61 61 61 62 62 62 62 63 63 64 64 64 64 64 63 64 64 63 63 62 61 62 62 62 62 62 62 62 61 61 60 60 59 58 57 56
39 41 39 38 35 35 33 33 35 35 29 32 27 27 26 27 30 31 31 29 26 26 27 26 22 20 19 19 23 27 27 28 33 34 35 36 39 44 45 50 54 55 57 58 59 60 60 59 60 60 60 60 61 62 61 62 62 62 62 62 61 62 61 61 62 62 62 62 63 63 64 64 64 64 64 63 63 63 63 63 62 63 62 62 62 62 61 61 60 60 60 60 59 59 58 56 55
40 39 40 36 34 34 37 35 33 31 31 32 32 31 28 29 29 26 28 28 29 28 26 25 23 22 19 21 21 25 25 28 28 33 33 33 36 40 41 45 50 53 56 58 58 59 60 60 60 60 60 60 60 61 61 61 61 61 62 62 61 61 61 61 61 61 62 62 63 64 63 64 63 64 64 64 64 64 63 63 63 63 63 62 61 61 61 60 60 59 59 58 58 57 56 55 54
36 36 35 35 36 38 37 35 33 32 30 31 30 29 31 31 32 31 25 26 27 29 29 28 25 23 24 22 23 23 22 28 29 28 30 32 33 35 40 41 45 50 54 57 58 59 60 60 60 59 60 60 60 60 61 61 61 61 61 61 61 61 61 61 62 61 62 62 62 63 63 63 62 62 63 63 63 63 63 63 62 62 61 60 59 60 59 59 59 59 58 57 57 56 55 55 54
37 35 33 33 35 32 35 33 32 31 30 32 31 27 31 29 32 30 31 29 27 27 27 29 26 26 22 24 25 29 24 23 26 28 29 30 33 32 34 35 38 44 53 54 56 57 58 59 59 59 59 59 60 60 60 60 60 60 60 61 61 61 61 61 61 61 61 61 62 62 62 62 62 62 62 62 62 62 62 62 62 61 60 58 58 59 58 58 57 57 56 56 56 55 54 54 53
36 37 33 33 33 36 34 31 33 30 30 28 31 29 28 28 29 32 31 27 26 26 26 26 26 25 25 26 23 22 22 24 26 26 29 31 30 32 33 32 33 38 47 50 54 56 57 58 58 58 58 59 59 59 59 59 59 60 60 60 61 61 61 61 60 60 60 60 61 61 61 61 60 60 60 60 61 62 61 60 60 59 58 58 58 57 57 56 55 55 55 55 54 54 54 51 51
38 35 35 34 31 31 29 29 28 28 29 22 21 27 25 26 29 28 29 27 26 24 26 26 26 26 26 26 29 28 30 27 27 29 31 33 32 31 33 32 34 37 43 46 51 55 56 57 58 58 58 59 58 58 58 59 59 60 60 60 60 61 61 61 61 60 60 60 60 61 60 60 59 58 58 58 59 60 59 59 58 57 57 57 56 56 55 55 55 54 54 54 53 53 52 51 49
39 37 36 33 28 28 27 28 28 28 27 19 22 23 22 25 26 26 26 27 25 23 21 25 26 25 25 28 31 24 33 30 30 30 33 34 36 36 34 34 35 37 38 44 48 52 55 56 57 57 57 58 58 58 58 58 59 59 60 60 60 60 61 61 60 60 60 60 61 61 60 59 58 58 57 58 58 59 58 58 58 57 56 55 54 54 54 54 54 53 53 52 51 50 50 49 48
39 40 37 34 30 29 28 28 27 28 29 20 19 26 27 25 27 22 24 18 20 24 23 24 26 26 27 27 28 26 26 26 32 33 33 32 34 33 37 36 35 36 37 40 45 49 53 54 56 57 57 58 58 58 58 58 59 59 60 60 60 60 60 60 60 60 60 60 61 61 60 60 59 59 58 58 57 57 57 56 55 54 53 52 52 52 52 52 53 52 50 49 48 48 47 46 44
37 38 37 36 32 31 28 27 28 26 24 22 21 25 26 26 23 24 21 21 21 19 20 24 24 23 26 27 27 27 26 25 28 30 33 32 33 33 35 36 36 37 37 40 43 48 52 53 55 56 57 57 58 58 58 58 59 59 59 60 60 60 59 60 60 60 60 61 61 60 60 59 59 58 58 57 56 57 55 55 52 52 52 51 51 51 52 51 51 49 48 47 45 45 43 43 42
34 34 33 34 30 29 25 26 16 25 24 23 25 21 24 24 24 25 26 24 22 19 17 17 20 23 26 28 30 28 29 31 32 35 35 36 38 39 38 37 37 37 40 41 41 46 49 52 54 55 56 57 58 58 58 58 58 59 59 60 60 60 60 60 60 60 60 60 61 60 60 59 59 58 57 55 54 54 54 51 51 51 51 51 51 51 50 49 48 47 46 45 42 42 41 40 39
33 31 34 33 35 33 30 28 22 23 24 25 21 24 24 23 24 21 22 25 25 18 17 16 18 23 21 28 32 31 33 34 35 37 38 39 40 41 42 42 40 39 39 40 41 44 47 50 52 54 55 56 57 57 57 58 58 59 59 59 60 60 60 60 60 60 60 60 60 60 60 58 58 56 54 54 52 52 52 48 50 49 49 49 48 48 48 47 47 46 44 41 40 40 39 38 39
33 33 37 33 29 30 28 28 25 23 23 24 23 20 21 23 25 18 18 21 22 22 22 19 18 19 22 24 24 26 28 33 37 37 40 42 42 43 43 43 43 42 42 43 44 45 47 49 51 52 54 54 56 56 57 58 59 59 60 59 60 60 60 60 60 60 60 60 59 59 58 57 55 53 53 51 50 49 48 48 48 47 47 46 46 46 46 45 43 41 39 37 38 38 37 36 37
34 35 33 36 31 30 29 28 28 27 25 24 26 18 21 25 24 25 25 20 19 18 20 21 20 20 18 20 24 26 31 32 34 35 39 42 43 43 43 43 43 43 43 44 44 46 46 47 49 51 53 54 55 55 57 57 58 59 59 59 60 60 60 60 60 60 59 59 59 57 56 55 53 51 51 50 49 48 47 46 45 45 45 45 44 43 44 40 39 38 37 37 37 37 36 35 34
31 31 31 33 30 31 30 28 28 26 25 24 24 23 24 25 22 23 24 24 22 20 22 26 24 21 20 22 26 31 32 34 37 39 41 41 42 42 42 43 44 44 44 45 45 45 46 47 48 49 51 52 54 55 56 57 58 58 58 58 59 59 59 59 60 59 58 58 57 55 55 52 51 50 50 49 48 47 46 45 44 43 43 43 42 40 39 38 37 36 36 36 37 36 34 32 32
32 32 32 32 28 26 28 27 29 27 25 24 22 23 27 22 18 21 21 22 21 24 22 23 22 18 22 31 31 29 32 32 34 37 40 42 41 42 43 43 43 44 46 46 47 46 46 47 49 50 51 52 53 54 55 56 57 57 57 57 58 58 58 59 59 58 58 57 55 54 53 52 51 49 49 49 46 46 45 44 44 42 41 41 39 38 37 36 35 35 36 37 35 34 32 32 31